Location: Unspecified
(0.0000°N, 0.0000°E)
Time: 20:01:25
(UTC+00:00)

Transit 4A - Pass Details

Date: 05 June 2022
Orbit: 864 x 980 km, 66.8° (Epoch: 26 June)

Event Time Altitude Azimuth Distance (km) Brightness Sun altitude
Rises 10:53:57 0° 3° (N) 3,529 11.3 62.5°
Reaches altitude 10° 10:56:57 10° 17° (NNE) 2,570 10.8 62.9°
Maximum altitude 11:01:40 25° 70° (ENE) 1,730 10.1 63.5°
Drops below altitude 10° 11:06:18 10° 123° (ESE) 2,525 10.3 64.1°
Sets 11:09:12 0° 136° (SE) 3,454 10.8 64.4°
